Saltar para o conteúdo principal

Angra do Heroísmo

ID 1200511 · 38.6659, -27.2166 mapa

Última leitura · 2026-05-09 18:00 (Europe/Lisbon)

Temperatura
14.7 °C
Humidade
72 %
Pressão
1,018.4 hPa
Precipitação
0.8 mm
Radiação
1,392 W/m²
Velocidade do vento
20.5 km/h
Direcção do vento
N · Norte

Histórico de 24 horas

Hora (Europe/Lisbon) Temperatura Humidade Pressão Chuva Vento Direcção
2026-05-09 18:00 14.7 °C 72 % 1,018.4 0.8 mm 20.5 km/h N
2026-05-09 17:00 14.9 °C 73 % 1,018.1 0.3 mm 19.4 km/h N
2026-05-09 16:00 15.1 °C 74 % 1,017.5 0.0 mm 15.1 km/h N
2026-05-09 15:00 14.7 °C 76 % 1,017.3 0.1 mm 23.8 km/h N
2026-05-09 14:00 13.7 °C 78 % 1,017.8 0.7 mm 24.5 km/h NW
2026-05-09 13:00 13.9 °C 70 % 1,017.9 0.0 mm 20.5 km/h NW
2026-05-09 12:00 13.3 °C 67 % 1,018.2 0.1 mm 20.9 km/h NW
2026-05-09 11:00 12.9 °C 60 % 1,018.4 0.0 mm 15.5 km/h NW
2026-05-09 10:00 11.9 °C 57 % 1,018.5 0.0 mm 6.5 km/h SW
2026-05-09 09:00 11.5 °C 63 % 1,018.1 0.0 mm 13.0 km/h NW
2026-05-09 08:00 10.7 °C 76 % 1,018.0 0.2 mm 8.6 km/h NW
2026-05-09 07:00 11.7 °C 68 % 1,018.0 0.0 mm 4.7 km/h W
2026-05-09 06:00 11.9 °C 70 % 1,018.2 0.0 mm 5.4 km/h NW
2026-05-09 05:00 11.9 °C 72 % 1,018.3 0.0 mm 9.7 km/h NW
2026-05-09 04:00 11.4 °C 76 % 1,018.6 0.0 mm 10.4 km/h NW
2026-05-09 03:00 11.8 °C 63 % 1,018.7 0.3 mm 9.7 km/h NW
2026-05-09 02:00 12.4 °C 69 % 1,019.1 0.1 mm 15.5 km/h NW
2026-05-09 01:00 12.9 °C 71 % 1,019.2 0.0 mm 16.9 km/h N
2026-05-09 00:00 13.1 °C 73 % 1,018.9 0.0 mm 11.5 km/h N
2026-05-08 23:00 13.3 °C 76 % 1,018.2 0.1 mm 7.6 km/h NW
2026-05-08 22:00 13.7 °C 76 % 1,017.5 0.0 mm 14.0 km/h N
2026-05-08 21:00 14.1 °C 77 % 1,017.0 0.0 mm 16.2 km/h N
2026-05-08 20:00 14.2 °C 79 % 1,016.7 0.4 mm 19.8 km/h N
2026-05-08 19:00 14.5 °C 78 % 1,016.5 0.8 mm 12.6 km/h NW